RH
55 55 56 56 57 58 59 60 61 62 63 64 66 67 69 71 74 77 80 84 87 89 91 91 89 88 87 86 87 88 88 89 89 89 88 87 85 84 82 81 79 78 78 77 76 75 74 73 72 72 71 71 70 68 66 64 61 60 58 57 56 55 54 53 51 49 49 50 49 47 46 47 47 45 43 42 40 37 36 37 36 34 32 28 24
63 64 65 67 68 70 71 73 74 75 75 76 78 79 81 83 86 88 89 90 91 90 89 88 85 83 82 80 78 77 75 74 74 74 73 72 71 70 70 71 71 71 71 72 72 72 72 72 72 72 73 74 74 73 71 69 67 64 61 58 56 54 53 52 51 49 48 48 48 48 48 48 48 47 44 41 38 36 36 36 35 32 30 27 23
78 80 81 82 84 84 84 84 84 84 83 83 83 83 84 83 83 82 80 79 78 76 74 73 71 70 69 67 66 65 64 64 65 65 65 65 66 66 68 69 70 70 71 72 73 73 73 74 74 74 75 75 74 72 68 64 60 57 54 51 49 47 46 45 44 43 42 40 39 41 43 43 43 42 39 37 35 34 33 31 31 30 29 26 23
81 81 80 80 80 78 77 76 75 75 74 73 72 71 70 68 66 64 63 63 62 62 60 60 60 60 60 60 59 59 58 57 57 57 57 57 56 56 55 55 54 54 54 55 55 55 55 55 56 56 55 55 53 51 48 44 41 40 38 37 36 35 34 33 32 31 31 30 29 29 30 33 35 35 32 30 31 32 31 28 28 29 28 26 24
64 62 61 60 59 57 57 56 55 55 55 54 52 51 50 49 48 47 47 47 46 46 45 45 45 45 45 45 45 44 43 43 43 43 42 42 42 41 40 39 38 38 37 37 38 38 39 39 39 39 38 37 36 36 34 33 32 31 30 29 28 27 26 26 25 25 24 24 24 23 23 25 27 28 28 27 27 28 29 28 27 26 27 27 26
42 41 40 39 39 38 38 37 37 37 36 35 35 34 34 34 34 34 35 35 35 35 35 36 36 37 37 37 38 38 38 38 38 39 39 39 40 39 39 39 39 39 38 38 38 39 39 40 40 40 40 39 38 37 36 36 35 33 32 31 29 28 27 27 27 26 25 24 24 23 23 24 24 25 26 26 26 26 26 27 28 25 24 26 27
32 32 31 31 32 31 31 31 31 31 31 31 32 32 33 33 34 35 35 36 37 37 37 38 39 39 40 41 41 41 42 43 42 43 43 44 44 44 45 45 44 44 44 43 43 44 43 43 43 43 43 43 42 41 41 40 40 39 38 36 34 33 31 30 30 30 29 28 27 26 25 25 25 25 26 26 27 29 28 26 27 27 25 25 26
35 35 35 36 36 36 36 36 36 36 36 36 37 38 38 39 39 40 40 40 41 41 42 42 42 43 43 43 44 44 44 45 45 45 46 46 47 47 47 47 47 47 47 48 47 48 47 46 45 45 44 44 43 43 42 41 41 40 39 38 37 35 34 33 33 33 32 31 30 29 28 27 27 27 28 28 28 31 33 30 28 28 28 27 26
38 39 39 39 39 40 40 40 40 40 40 41 41 42 42 42 43 43 43 43 43 43 44 43 43 43 43 43 43 43 43 43 44 44 45 45 45 45 45 45 45 45 46 46 46 46 47 47 46 46 45 45 44 44 44 43 43 42 41 39 38 37 36 34 33 33 32 32 32 31 31 30 30 30 31 31 31 32 36 37 34 30 29 31 30
39 40 40 40 41 41 41 42 42 42 42 43 43 43 43 43 43 44 44 44 44 44 44 44 44 44 44 44 43 43 43 43 43 43 43 43 44 44 44 44 43 43 43 42 42 42 43 43 43 43 43 43 43 43 42 42 42 42 42 42 41 40 39 38 37 36 36 36 36 36 35 34 33 33 33 34 34 34 36 41 42 38 33 32 32
40 40 40 41 41 41 41 42 42 42 42 42 43 43 43 43 43 43 43 43 43 43 44 43 43 43 44 44 44 44 44 44 44 44 44 44 44 44 44 44 44 43 43 42 42 42 42 42 42 41 41 41 40 40 39 39 39 39 39 40 40 40 39 39 39 40 41 41 42 42 42 41 39 37 36 34 34 35 36 40 45 46 42 38 35
39 39 39 39 40 40 40 40 40 41 41 41 41 41 42 42 42 42 42 42 43 43 43 43 43 43 44 44 44 44 44 45 45 45 45 45 45 46 45 46 46 45 45 45 45 44 44 44 44 44 44 43 43 42 41 40 40 39 39 39 39 38 38 38 39 39 40 41 42 43 43 44 43 42 41 39 36 35 35 37 42 45 46 46 43
38 38 38 38 38 38 38 38 38 38 38 38 38 38 39 39 39 39 39 39 40 40 40 41 41 41 41 42 42 42 42 43 44 44 44 45 45 46 46 46 47 47 47 48 48 48 48 48 48 48 48 47 46 46 45 44 43 42 42 42 41 41 40 39 40 40 40 40 39 39 39 40 41 42 42 42 41 39 37 36 38 40 42 45 47
30 29 28 28 27 27 27 27 27 26 26 26 26 26 26 26 27 27 27 27 28 28 29 29 30 30 30 30 31 31 32 32 33 34 34 35 36 37 38 39 40 41 42 43 43 44 45 45 46 47 47 47 47 46 46 45 45 45 45 45 44 43 42 41 40 40 39 39 38 38 38 37 38 38 38 39 40 41 41 40 40 40 39 40 43
16 16 15 15 15 15 15 14 14 15 14 15 15 15 15 15 15 16 16 16 16 17 17 17 17 18 17 18 18 18 19 19 20 20 21 21 22 23 24 24 25 26 27 28 29 30 31 31 32 33 34 35 36 37 37 38 39 40 41 42 42 42 42 41 41 40 39 39 38 37 37 37 37 36 36 36 36 37 38 39 41 42 42 41 41
11 11 11 11 11 11 11 11 11 11 11 11 11 11 12 11 12 12 12 12 12 12 13 13 13 13 13 13 14 14 14 14 14 14 15 15 15 15 16 16 16 17 17 18 18 18 19 19 19 20 21 21 22 23 24 24 25 27 28 29 30 31 32 33 33 34 35 35 36 36 36 36 36 36 35 34 34 33 34 35 37 38 41 42 43
10 10 10 10 10 10 9 9 9 9 10 10 10 10 10 10 10 10 10 10 10 10 10 11 11 11 11 11 11 12 12 12 12 13 13 13 13 13 14 14 14 14 14 15 15 15 15 15 15 15 15 15 16 16 16 16 17 17 18 18 19 19 19 20 21 22 23 24 25 27 28 30 31 32 33 33 33 32 31 32 32 33 35 37 41
8 8 9 9 9 9 9 8 8 8 8 8 8 8 8 8 8 8 8 8 8 8 8 8 9 8 9 9 9 9 9 9 10 10 10 11 11 11 12 12 12 13 13 13 14 14 14 14 14 14 15 14 14 14 14 14 14 15 15 15 15 15 14 15 15 15 15 15 16 16 17 19 20 22 24 26 28 29 30 30 30 30 30 30 33
8 8 8 8 8 8 8 8 8 8 8 8 8 8 8 8 8 8 8 8 7 8 7 7 8 7 7 7 7 7 7 8 8 8 8 8 8 8 8 8 9 9 9 10 10 11 11 11 12 12 13 13 13 13 13 13 13 14 14 14 14 14 13 14 14 13 13 13 13 13 12 13 13 13 14 15 17 19 22 24 26 27 27 27 27
7 7 7 7 8 8 8 8 8 8 8 9 8 9 9 8 9 9 8 8 8 8 8 8 8 8 8 8 8 8 7 7 7 7 7 7 7 8 7 7 7 7 7 7 7 8 8 8 8 8 9 9 9 10 10 11 11 11 11 12 12 12 12 12 12 12 12 12 12 13 13 12 12 12 12 12 12 12 13 14 17 19 21 23 24
7 7 7 7 7 8 8 8 8 8 8 9 9 9 9 9 9 9 9 9 9 9 9 9 9 9 9 8 8 8 8 8 8 8 7 8 7 7 8 7 7 8 7 7 7 7 7 7 7 7 7 7 7 7 7 8 8 8 9 9 9 10 10 10 10 11 10 11 11 11 12 12 11 11 11 11 11 11 11 11 11 12 13 15 17
7 7 7 7 7 7 8 8 8 9 9 9 9 8 9 9 9 9 9 9 9 9 9 9 9 9 9 9 9 9 9 8 8 8 8 8 8 7 7 7 7 7 7 7 7 7 7 7 7 7 7 7 7 7 7 7 7 7 7 7 7 7 8 8 8 9 9 9 9 9 9 9 9 10 9 10 10 10 10 10 10 10 10 10 11
8 9 8 8 8 8 8 9 9 9 9 9 9 9 8 8 8 8 8 8 8 8 8 8 9 9 9 9 9 9 9 9 8 8 8 8 8 8 7 7 7 7 7 7 7 7 7 7 7 7 7 7 7 7 7 7 7 7 6 6 6 6 7 7 7 7 7 7 8 8 8 8 7 8 8 8 8 8 8 8 8 9 9 9 9
9 10 10 10 11 10 10 10 10 10 10 9 9 9 8 8 8 7 7 7 7 7 7 7 7 7 7 8 8 8 8 8 8 8 8 8 8 8 8 7 7 7 7 7 7 6 6 6 6 7 6 6 7 7 7 7 6 7 6 6 6 6 6 6 6 6 6 6 7 7 7 7 7 7 7 7 7 7 7 7 7 7 7 7 8
11 11 12 12 12 12 12 12 12 11 11 10 10 9 9 8 8 8 7 7 7 6 6 6 6 6 6 6 6 6 7 7 7 7 7 8 8 7 8 7 7 7 7 7 7 7 6 6 6 6 6 6 6 6 6 6 6 6 6 6 6 6 6 6 6 6 6 6 6 6 6 6 6 6 6 6 6 6 6 6 6 6 7 7 7
12 12 12 12 12 12 12 12 12 12 11 11 11 10 9 9 8 8 8 7 7 7 7 6 6 6 6 6 6 6 6 6 6 6 6 6 7 7 7 7 7 7 7 7 7 7 6 6 6 6 6 6 6 6 6 6 6 6 6 6 6 6 6 6 5 5 5 5 5 5 6 5 6 6 6 6 6 6 6 6 6 6 6 6 6
12 12 12 12 12 12 12 12 11 12 11 11 11 10 10 9 9 8 8 8 8 8 7 7 7 7 7 6 6 6 6 6 5 6 6 6 6 6 6 6 6 6 7 6 6 6 6 6 6 6 6 6 6 6 6 6 6 5 5 6 6 6 5 5 5 5 5 5 5 5 5 5 5 5 5 5 5 5 5 5 5 5 5 5 5
12 12 12 12 12 11 11 11 11 11 11 11 11 10 10 9 9 8 8 8 8 8 8 7 7 7 7 6 7 6 6 6 6 5 6 6 5 6 5 6 6 6 6 6 6 6 6 6 6 5 5 6 5 5 5 5 5 5 5 5 5 5 5 5 5 6 6 6 6 6 5 5 5 5 5 5 5 5 5 5 5 5 5 5 5
12 13 13 12 12 11 11 11 10 10 11 11 10 10 10 9 8 8 8 8 8 8 7 7 7 7 7 7 7 7 6 6 6 6 6 6 5 6 6 5 6 5 5 5 5 5 5 5 5 5 5 5 5 5 5 5 5 5 5 5 5 5 5 5 5 5 6 6 6 6 6 6 6 6 5 5 5 5 5 4 4 4 4 4 4
14 14 14 14 13 12 12 11 11 11 11 11 11 10 9 9 8 8 8 8 8 8 7 7 7 7 7 7 7 7 7 6 7 6 6 6 6 6 6 6 6 6 6 6 6 6 6 6 5 5 5 5 5 5 5 5 5 5 4 4 4 4 4 5 5 5 5 5 5 5 5 6 5 5 5 5 5 5 5 4 4 4 4 4 4
15 14 15 14 14 13 12 12 12 12 12 11 11 10 9 9 8 8 8 8 7 7 7 6 6 6 6 6 6 6 6 6 6 6 6 6 6 6 6 6 6 6 6 6 6 6 6 6 6 6 6 6 6 5 5 5 5 5 5 5 5 5 5 5 5 5 5 5 5 5 4 5 5 5 5 5 5 5 5 4 4 4 4 4 4
15 14 14 14 14 13 12 12 12 12 12 12 11 11 10 8 8 7 7 7 7 6 6 6 6 6 6 6 6 6 6 6 6 6 6 6 6 6 6 6 6 6 6 6 6 6 6 5 5 5 5 5 5 5 5 5 5 5 5 5 5 5 5 6 5 5 5 5 4 4 4 4 4 4 4 4 4 4 4 4 4 4 4 4 4
14 14 14 13 13 13 12 11 12 11 12 12 11 10 9 8 7 7 7 7 7 6 6 6 5 5 5 6 6 5 6 5 5 5 5 5 5 5 5 5 5 5 5 5 5 5 5 5 5 5 5 5 5 5 4 4 4 5 4 4 5 5 5 6 6 5 5 5 5 4 4 4 4 4 4 4 3 3 3 3 3 3 3 3 4
14 14 14 14 13 13 12 11 11 12 12 12 11 10 9 7 7 7 7 7 6 6 6 5 5 6 6 6 6 6 6 5 5 5 5 5 5 5 5 5 5 5 5 5 5 5 5 5 4 5 5 4 4 4 4 4 4 4 4 4 4 4 5 5 5 5 5 5 5 4 4 4 4 4 4 4 3 3 3 3 3 3 3 3 3
15 13 13 14 13 12 12 11 11 12 11 11 11 9 8 7 6 7 7 7 6 6 5 5 5 6 6 6 6 6 5 5 5 5 5 5 5 5 5 5 5 5 5 5 5 5 5 5 4 4 4 4 4 4 4 4 4 4 4 4 4 4 4 4 4 4 4 4 4 4 4 4 4 4 4 3 3 3 3 3 3 3 3 3 3
15 14 13 14 14 13 12 11 11 11 11 11 10 9 7 7 6 6 7 6 6 6 5 5 6 6 6 6 6 6 6 6 5 5 5 5 5 5 5 5 5 5 5 5 5 5 5 5 4 4 4 4 4 4 4 4 4 4 4 4 4 4 4 4 4 4 4 4 4 4 4 4 4 4 4 3 3 3 3 3 3 3 3 3 3
16 17 15 15 15 14 12 11 10 10 10 10 9 8 7 6 6 7 7 6 6 5 5 6 6 6 6 6 6 6 6 6 6 6 6 5 5 5 5 5 6 5 5 5 5 5 5 5 5 4 4 4 4 4 4 4 4 4 4 4 4 4 4 4 4 4 4 4 4 4 4 4 4 4 4 4 3 3 3 3 3 3 3 3 3
16 17 16 15 15 14 12 11 10 9 9 9 9 8 7 7 7 7 7 6 6 5 5 6 6 6 6 6 6 6 6 6 6 6 6 6 6 6 6 6 6 6 6 6 5 5 5 5 5 5 4 4 5 4 4 5 5 4 4 4 4 4 4 4 4 4 4 4 4 4 3 3 4 4 4 4 3 3 3 3 3 3 3 3 3
14 15 16 15 14 13 12 10 9 9 9 9 8 8 7 7 7 7 7 7 6 6 6 6 7 7 7 6 6 6 6 6 6 6 6 6 6 6 6 6 6 6 6 6 6 6 6 5 5 4 4 4 4 5 4 5 5 4 4 4 4 4 4 4 4 4 4 4 4 4 4 4 4 4 4 3 3 3 3 3 3 3 3 3 3
13 13 14 14 12 11 10 9 8 8 8 8 8 7 7 7 7 7 7 6 6 6 6 6 7 7 7 6 6 6 6 6 6 6 6 6 6 6 6 6 6 6 6 6 6 5 5 5 4 4 4 4 4 4 4 4 5 4 4 3 3 4 4 4 4 4 4 4 4 3 4 4 3 4 4 3 4 3 3 3 3 3 3 3 3
13 13 12 12 12 10 9 8 7 7 7 7 7 7 7 7 7 7 7 6 6 6 6 7 7 6 6 6 6 6 6 6 6 6 6 5 5 5 5 5 5 6 5 5 5 5 5 5 4 3 3 3 3 4 4 4 4 4 3 3 3 3 3 4 4 4 4 3 3 3 4 4 3 4 4 4 4 3 3 3 3 3 3 3 3
13 13 12 11 11 10 9 8 7 7 7 7 7 7 7 7 7 7 7 6 6 6 6 6 6 6 5 6 5 5 5 5 5 5 5 5 5 5 5 5 5 5 5 5 5 5 5 4 4 3 3 3 4 4 4 4 4 4 3 3 3 3 3 4 4 4 3 3 3 3 3 3 3 3 4 4 3 3 3 3 3 3 3 3 3
13 13 12 10 10 9 8 8 7 7 7 7 7 7 7 7 7 7 7 6 6 6 6 6 5 5 5 5 5 5 5 5 5 5 5 5 5 5 5 5 5 5 5 5 5 5 4 4 4 3 3 4 4 4 4 5 5 4 3 3 3 3 3 4 4 4 3 3 3 4 3 3 3 3 3 3 3 3 3 3 3 3 3 3 3
13 12 11 10 9 8 8 7 7 7 7 7 7 7 7 7 7 6 6 6 5 5 5 5 5 5 5 5 5 5 5 5 5 5 5 5 5 5 5 5 5 5 5 5 5 5 4 4 4 3 3 4 4 4 5 5 5 5 3 3 3 3 3 4 4 4 4 4 3 3 3 3 3 3 3 3 3 3 3 3 4 4 3 3 3
13 12 11 9 9 8 8 7 7 6 7 7 6 7 7 7 7 6 5 5 5 5 5 5 5 5 5 5 5 5 5 5 5 5 5 5 5 5 5 5 5 5 6 5 5 5 5 4 4 4 4 4 4 4 5 5 5 5 4 3 3 3 4 4 4 4 4 4 3 3 3 3 3 3 3 3 3 3 3 3 3 3 4 4 3
13 12 11 9 8 8 7 7 7 7 7 7 6 6 7 6 6 6 5 5 5 5 5 5 5 5 5 5 5 5 5 5 5 5 5 5 5 5 5 5 5 6 6 6 5 5 5 5 4 4 4 4 4 4 5 6 6 5 4 4 4 4 4 4 4 4 4 4 4 3 3 3 4 3 3 3 3 3 3 3 3 3 3 4 4
12 11 10 8 7 8 7 7 7 7 6 6 6 6 6 6 6 5 5 5 6 5 5 5 5 5 5 5 5 5 5 5 5 5 5 5 5 5 5 5 5 6 6 6 6 5 5 5 5 4 4 4 4 4 5 6 6 6 5 4 4 4 4 4 4 4 4 4 4 4 3 4 4 3 4 4 3 4 3 3 3 3 3 3 4
11 9 9 8 7 7 7 7 7 7 6 6 5 5 6 5 5 5 5 5 5 5 5 5 5 5 5 5 4 5 4 5 5 4 4 4 4 5 5 5 5 5 5 5 5 5 5 5 4 4 4 4 4 4 5 5 6 6 5 4 5 5 4 4 5 5 4 4 4 4 4 4 4 4 4 4 4 4 4 3 3 3 3 4 4
10 9 8 8 7 7 7 7 7 6 6 5 5 5 5 5 5 5 5 5 5 5 5 5 5 5 5 4 4 4 4 4 4 4 4 4 4 4 5 5 4 5 5 5 5 5 5 4 4 4 4 4 4 4 4 5 5 6 5 5 5 5 5 5 5 5 5 4 4 4 4 4 4 4 4 4 4 4 4 4 4 3 3 4 4
9 8 7 7 7 7 7 6 6 6 5 5 5 5 5 5 5 5 5 5 5 5 5 5 5 5 5 5 5 5 4 4 4 4 4 4 4 4 4 4 5 4 5 5 5 5 5 5 4 4 3 4 4 3 4 4 5 5 6 5 5 5 5 5 5 5 5 4 4 4 4 4 4 4 4 4 4 4 4 4 4 4 4 4 4
9 8 7 7 6 6 6 6 6 5 5 5 5 5 5 5 5 5 5 5 5 5 5 5 5 5 5 5 5 5 5 5 4 5 5 4 4 4 4 4 5 5 5 5 5 5 5 5 5 4 4 4 4 3 4 4 4 5 5 5 5 5 5 5 5 5 5 5 5 4 4 4 4 4 4 4 4 4 4 4 4 4 4 4 4
Wind_Speed
112 112 113 113 114 115 115 116 116 117 118 118 118 119 119 119 119 119 119 119 119 119 119 120 121 121 121 121 121 121 121 121 122 122 122 122 122 122 122 122 122 122 122 121 121 121 120 120 119 119 119 118 118 117 116 115 114 113 112 111 110 109 108 108 107 106 106 105 105 104 103 102 102 102 101 100 101 100 98 98 99 99 99 99 98
110 111 112 113 113 114 115 116 116 117 118 118 118 119 119 119 119 119 120 120 120 121 121 122 122 122 123 123 123 123 122 122 122 122 122 122 122 122 121 121 121 121 120 120 119 119 119 118 118 118 117 117 117 116 116 115 114 113 113 112 111 110 109 109 108 108 107 106 105 104 103 103 103 103 102 102 101 100 100 100 100 99 99 98 97
110 111 111 112 113 114 115 116 116 117 118 118 119 119 119 120 120 121 121 121 122 122 122 122 122 122 122 122 122 122 122 122 122 122 122 121 121 121 121 120 120 120 120 119 119 119 119 118 118 118 118 118 118 118 117 117 116 115 115 114 113 112 111 110 110 109 108 107 106 105 104 104 104 104 104 102 101 101 101 101 99 99 99 98 96
110 111 112 113 114 114 115 116 116 117 118 118 119 119 120 120 120 121 121 121 121 121 121 121 121 121 121 121 121 121 121 121 121 121 121 121 121 121 121 120 120 120 120 119 119 119 119 118 118 118 118 118 118 118 118 117 116 115 115 114 113 112 111 110 110 109 108 108 107 105 104 104 103 104 104 102 101 101 102 101 99 99 99 98 96
110 111 112 112 113 114 114 115 115 116 116 117 117 118 118 118 118 118 119 119 119 119 119 119 119 119 119 120 120 120 120 119 119 119 119 119 119 119 119 119 119 118 118 117 117 117 117 116 116 116 116 116 116 116 116 115 114 113 112 112 111 110 108 108 107 107 106 105 104 103 102 101 101 102 102 101 100 100 100 100 99 99 97 97 96
108 109 109 110 111 111 112 113 113 114 114 115 115 115 116 116 116 116 116 117 117 117 118 118 118 118 118 119 119 119 119 119 119 119 119 119 119 119 119 119 119 119 119 118 118 117 117 117 117 117 116 116 116 115 115 114 113 113 112 111 110 109 107 106 105 105 105 103 102 101 99 98 98 98 98 97 97 98 97 97 98 98 97 96 95
106 107 108 109 109 110 111 112 113 114 114 114 115 115 116 116 116 117 117 117 118 118 118 119 119 119 120 120 120 120 121 121 121 121 121 121 121 121 121 122 122 121 121 121 121 121 121 120 120 120 120 119 119 119 118 117 117 116 115 114 113 111 110 108 107 106 106 105 104 102 100 98 97 96 95 95 94 95 95 95 95 96 96 95 94
107 108 109 110 111 112 113 114 114 115 116 116 117 117 118 118 119 119 120 120 120 121 121 122 122 122 123 123 123 123 123 123 124 124 124 124 124 124 124 124 124 124 124 124 123 123 123 123 123 123 122 122 122 122 121 121 120 120 119 118 117 115 114 113 111 110 110 109 108 106 104 102 100 98 97 96 94 93 94 95 95 94 95 95 95
109 110 111 112 113 114 115 116 117 118 118 119 120 120 121 121 122 122 123 124 124 124 125 125 126 126 126 126 127 127 127 127 127 127 127 127 127 127 127 127 127 127 127 127 126 126 126 126 125 125 125 124 124 123 123 123 122 121 121 120 119 118 117 116 115 114 113 112 111 111 109 107 105 103 101 100 98 95 94 96 96 95 94 95 96
111 112 113 114 115 116 117 118 119 119 120 121 122 123 123 124 124 125 125 126 127 127 128 128 128 129 129 129 129 129 130 130 130 130 130 130 130 130 130 130 130 130 130 130 129 129 129 129 128 128 128 127 127 126 126 125 124 123 122 121 120 120 119 118 116 115 114 113 113 113 112 111 109 108 107 105 104 101 98 98 99 99 97 96 97
112 113 114 115 116 117 118 119 120 121 122 123 123 124 125 126 126 127 127 128 129 129 130 130 131 131 131 132 132 132 132 132 132 132 132 132 132 132 133 133 133 133 133 133 132 132 131 131 131 131 130 130 130 129 128 128 127 126 125 124 123 122 121 120 118 117 115 115 114 114 114 113 112 111 110 109 108 107 104 102 102 103 101 100 100
113 114 115 116 117 119 120 121 122 123 124 125 125 126 127 128 129 130 130 131 131 132 133 133 134 134 134 134 135 135 135 135 135 135 135 135 135 135 135 135 136 135 135 135 135 135 134 134 134 133 133 133 132 132 131 130 129 128 128 127 126 125 124 122 121 120 119 118 117 117 116 116 115 113 112 112 111 110 109 107 107 107 106 105 104
114 115 116 117 118 119 121 122 123 124 125 126 127 127 128 129 130 131 132 132 133 134 134 135 136 136 136 137 137 137 137 138 138 138 138 138 138 138 138 138 138 138 138 138 138 138 137 137 137 137 137 136 136 135 135 134 133 132 131 130 129 128 127 126 124 124 123 122 121 120 119 118 118 117 116 114 113 112 111 110 110 111 111 110 110
113 114 115 116 117 118 119 120 121 122 123 124 125 126 127 128 129 130 130 131 132 133 134 134 135 136 136 137 137 138 138 138 138 139 139 139 139 139 139 140 140 140 140 140 140 140 140 140 140 140 140 139 139 139 138 137 136 135 134 133 133 132 131 130 129 127 126 125 124 123 122 122 121 120 119 118 117 116 114 113 112 112 112 113 114
108 109 110 111 112 113 114 115 116 117 118 119 121 122 123 124 125 126 127 128 129 130 131 132 133 133 134 135 135 136 136 137 137 137 138 138 138 139 139 139 139 140 140 140 140 140 140 140 140 140 140 140 140 140 139 139 138 137 137 136 136 135 134 133 132 132 130 129 128 127 126 125 124 124 123 122 121 119 118 117 116 115 114 114 116
102 103 104 105 106 107 108 110 111 112 113 114 115 116 118 119 120 121 122 123 124 125 126 127 129 130 131 131 132 133 134 134 135 135 135 136 136 137 137 137 138 138 138 139 139 139 140 140 140 140 139 139 139 139 139 138 138 137 137 137 136 136 136 135 134 134 133 132 131 130 129 128 128 127 126 125 124 123 122 121 120 119 118 117 117
96 98 99 100 101 102 103 104 105 106 107 108 109 111 112 113 114 115 116 117 118 119 121 122 123 124 126 127 127 128 129 130 131 131 132 133 133 134 134 135 135 136 136 137 137 138 138 138 139 139 139 139 138 138 138 138 137 137 136 136 136 135 135 134 134 134 133 133 132 132 131 130 130 130 129 129 128 127 126 125 125 124 122 121 120
91 92 93 94 95 97 98 99 100 101 102 103 104 105 107 108 109 110 111 112 113 114 115 116 117 119 120 121 122 123 124 125 125 126 127 127 128 129 130 130 131 132 133 133 134 135 135 136 136 136 137 137 137 137 137 137 136 136 136 136 135 135 134 134 133 133 133 132 132 131 131 131 130 130 130 130 130 130 129 129 128 128 127 125 124
88 89 90 90 91 93 94 95 96 97 99 100 101 102 103 104 105 106 107 108 109 110 111 112 113 114 115 116 117 118 119 120 121 121 122 123 124 124 125 126 126 127 128 129 129 130 131 132 132 133 134 134 134 135 135 135 135 134 134 134 134 133 133 133 132 132 132 131 131 130 130 130 130 130 130 130 130 130 131 131 131 130 130 129 128
86 86 86 86 87 88 89 90 91 92 94 95 97 98 100 101 102 103 105 106 107 108 108 109 110 111 112 112 113 114 115 115 116 117 118 118 119 120 121 122 122 123 124 124 125 126 127 127 128 129 130 130 131 131 132 132 132 132 132 132 132 131 131 131 130 130 130 130 129 129 129 129 128 128 128 128 129 129 130 130 131 131 132 132 131
82 82 82 81 81 82 83 84 85 86 88 89 90 92 93 95 96 97 99 101 102 103 104 105 106 107 108 109 110 111 112 112 112 113 113 114 114 115 116 117 118 119 120 120 121 122 123 123 124 125 125 126 127 127 128 128 129 129 129 129 129 129 129 128 128 128 128 128 127 127 127 127 127 127 127 127 127 127 128 128 129 130 131 132 132
79 79 80 80 79 79 79 80 81 82 83 84 85 87 88 89 90 91 93 94 96 97 99 100 101 102 103 105 106 107 108 109 110 110 111 111 111 112 112 113 113 114 114 115 116 117 118 119 120 121 122 122 123 123 124 124 125 125 126 126 126 126 126 126 126 126 126 126 125 125 125 125 125 125 125 125 125 126 126 127 127 128 128 129 131
78 78 79 79 80 79 78 79 80 80 81 82 84 84 85 85 86 87 88 89 90 92 93 94 95 97 98 99 101 102 104 105 106 107 108 109 109 110 110 110 111 111 111 112 112 112 113 114 115 116 117 118 119 120 121 121 122 122 122 122 122 123 123 123 123 123 123 123 123 123 123 123 123 123 123 123 123 123 124 124 125 125 126 127 128
77 77 77 78 79 80 80 80 80 81 82 83 84 85 85 85 86 86 87 87 88 89 89 90 91 92 93 95 96 98 99 101 102 104 105 106 106 107 108 108 109 109 110 110 110 110 110 111 111 112 113 114 115 116 117 118 119 119 119 119 119 120 120 120 121 121 121 121 121 121 121 121 121 120 120 121 121 121 121 121 121 122 123 124 125
75 75 75 76 77 78 78 80 81 82 83 84 85 86 87 87 87 88 88 88 88 89 89 89 89 90 90 91 92 93 95 96 97 99 100 102 103 104 105 106 106 107 108 108 109 109 109 109 110 110 110 110 111 112 113 114 115 115 115 116 116 117 117 118 118 118 118 119 119 119 119 120 119 119 119 119 120 119 119 119 118 119 119 120 121
73 73 74 74 75 76 77 78 80 81 82 83 85 86 86 87 87 87 87 87 87 88 88 88 88 89 89 89 90 90 91 92 93 94 96 97 99 100 101 102 103 104 105 106 106 107 107 108 108 108 108 109 109 110 110 111 111 111 111 112 113 113 114 114 114 115 115 115 116 116 117 118 118 118 118 119 119 119 118 118 117 117 118 118 118
72 73 74 74 74 75 77 77 78 79 80 81 83 84 85 85 85 85 84 84 84 84 84 84 85 85 86 86 87 88 88 88 89 90 91 92 93 95 96 97 99 100 101 102 103 104 105 105 105 106 106 106 107 108 108 109 108 108 108 109 109 110 110 110 111 112 112 112 113 113 114 115 115 116 116 117 117 117 117 117 117 117 117 117 116
72 73 74 75 75 74 75 76 77 77 79 80 81 82 83 83 82 82 81 81 81 81 81 81 81 81 82 82 83 84 84 85 85 86 87 88 89 90 91 92 93 95 96 97 99 100 101 102 102 103 103 104 104 105 106 106 105 105 106 106 106 106 106 107 107 108 109 109 110 111 112 112 113 113 113 114 114 115 115 115 115 116 117 116 115
72 73 74 75 75 75 75 75 75 76 77 78 80 81 81 81 80 79 79 79 78 79 78 78 78 78 79 79 80 81 81 81 82 82 83 84 84 85 86 87 88 89 90 91 92 94 95 96 97 98 99 100 101 102 102 102 102 102 102 102 102 102 103 103 103 104 105 107 107 108 110 110 111 111 111 112 112 113 113 113 113 114 115 115 114
74 74 75 76 76 76 76 75 75 76 77 78 79 80 80 80 79 78 78 77 77 77 77 77 77 76 76 77 77 78 78 79 79 79 80 80 80 81 82 82 84 84 85 86 87 88 89 90 91 92 93 94 96 97 98 97 97 97 98 98 98 98 98 99 99 101 102 103 105 106 107 108 108 109 110 110 111 111 111 111 111 112 113 113 112
75 75 76 77 77 77 76 76 76 76 77 78 79 80 80 79 78 77 77 77 77 76 76 75 75 75 75 75 75 76 76 76 77 77 77 77 77 78 78 78 79 80 81 82 83 84 85 85 86 86 88 89 90 91 92 92 92 92 93 93 92 93 94 95 96 97 98 100 101 102 103 104 105 106 107 108 109 109 109 110 109 109 110 110 109
75 76 76 77 77 77 77 76 76 76 77 78 79 79 80 79 78 77 76 76 76 76 75 75 74 74 73 73 73 74 74 74 75 75 75 75 75 75 75 76 77 77 78 79 79 80 81 81 81 82 83 84 85 86 86 85 86 86 87 87 86 87 88 90 92 93 95 96 98 99 100 100 101 103 104 105 106 107 107 107 107 106 106 106 106
76 76 76 77 77 77 78 77 76 77 77 78 79 80 80 79 77 76 75 75 76 75 74 74 73 73 72 72 72 72 72 72 73 73 73 73 73 73 73 74 74 75 76 76 77 77 78 78 78 79 79 80 81 82 81 80 81 81 82 82 82 82 83 85 87 90 91 92 94 95 96 97 98 99 101 102 103 104 104 104 103 103 102 102 103
78 77 77 78 78 78 79 78 78 78 78 79 80 80 79 78 77 75 74 74 75 74 74 73 72 72 72 71 71 71 71 71 71 71 71 71 71 71 71 72 72 73 74 74 75 75 75 76 75 75 76 77 78 77 76 76 77 78 79 80 79 79 80 82 83 86 87 89 90 91 92 93 95 96 98 99 100 101 101 100 99 99 99 99 100
81 81 80 80 81 81 80 80 79 79 79 79 80 80 79 78 75 74 73 73 74 74 73 72 72 71 71 71 71 71 71 71 70 70 70 70 70 70 70 70 70 71 72 72 73 73 73 73 73 73 72 73 74 74 72 73 74 75 76 76 77 77 78 79 80 82 84 85 86 87 88 89 91 92 94 96 97 97 97 96 96 96 97 97 97
84 85 84 83 83 83 83 81 80 79 79 79 80 80 79 77 75 73 73 73 73 73 72 71 71 71 70 70 71 71 71 70 70 70 70 69 69 69 69 69 69 70 70 71 71 72 72 72 72 71 71 71 72 71 70 71 72 73 73 73 74 75 76 76 77 78 80 81 82 83 85 86 87 89 90 92 92 92 91 91 91 93 94 94 94
86 87 87 85 85 85 85 83 81 80 79 79 79 79 78 76 74 73 73 73 73 73 71 69 69 70 69 70 70 70 70 70 70 70 69 69 68 68 68 68 68 69 69 70 70 70 70 71 71 70 69 68 69 69 68 69 70 71 70 71 72 73 73 74 74 75 76 76 78 80 82 82 83 84 87 88 88 88 87 86 87 89 90 90 91
84 86 87 87 87 86 86 85 83 81 80 79 79 79 78 76 74 73 73 73 73 72 70 68 68 68 68 68 69 68 68 69 69 69 69 68 67 67 67 67 67 67 68 69 69 69 69 69 69 68 67 65 65 66 66 67 68 69 69 68 69 70 71 71 72 72 72 73 75 77 77 77 78 80 83 84 84 84 83 82 83 84 85 87 88
85 85 87 88 88 87 87 86 83 82 80 80 80 79 78 76 75 74 73 73 73 71 69 67 66 67 67 67 67 67 67 67 67 67 67 66 66 65 65 65 65 66 66 67 67 66 67 67 67 66 64 62 62 63 64 65 66 68 67 66 66 66 67 68 68 68 69 71 72 73 73 73 74 76 78 79 79 80 80 80 80 80 81 84 87
88 87 87 88 88 88 87 86 84 82 81 80 80 79 78 76 75 74 74 73 72 70 68 66 66 66 66 66 65 66 65 65 65 65 65 65 64 63 63 63 63 64 64 65 65 64 65 66 65 64 62 60 59 60 62 62 64 66 66 64 63 62 63 63 64 65 67 68 69 69 69 71 71 72 73 74 75 76 76 76 76 76 79 83 84
92 91 90 89 90 89 88 86 85 82 81 80 79 79 77 76 75 75 74 73 72 69 67 66 66 66 65 65 64 64 64 63 63 63 63 63 62 61 61 61 61 62 63 63 63 63 64 65 64 62 60 58 57 57 59 60 62 64 64 62 60 59 58 58 60 62 64 65 66 65 66 67 68 67 68 70 71 72 72 72 72 74 78 80 80
95 94 93 91 91 90 88 87 85 83 81 80 79 78 77 76 75 75 74 74 71 69 67 66 66 66 65 64 64 63 62 62 61 61 61 61 60 59 59 59 59 60 61 62 62 62 63 64 63 61 58 56 55 56 56 58 60 62 62 60 57 55 53 53 57 60 62 62 61 61 63 64 63 63 65 66 68 69 69 69 70 72 74 76 76
97 96 95 93 92 91 89 87 86 83 82 80 79 78 77 76 75 75 74 73 71 69 67 67 66 65 64 63 63 62 61 60 60 59 59 59 58 57 57 57 57 58 59 61 61 61 62 63 62 60 56 54 54 54 54 55 58 61 61 58 54 51 50 51 55 58 59 58 57 57 60 60 59 59 61 63 64 65 65 66 68 69 71 71 71
100 99 97 96 94 92 90 88 86 84 82 81 79 78 77 76 75 75 74 73 71 69 68 67 66 64 64 63 62 61 60 59 58 58 58 57 56 56 55 55 55 56 57 58 59 59 60 61 61 59 56 53 52 52 52 53 56 60 61 57 51 49 48 50 53 54 55 54 54 56 57 56 56 57 58 59 60 61 62 64 66 67 67 67 67
102 101 99 97 95 93 90 88 86 84 82 81 79 78 76 76 75 74 73 72 70 68 67 66 65 64 63 62 61 60 59 58 57 57 56 56 55 54 54 53 53 54 55 56 57 58 58 59 59 58 55 53 51 50 49 51 54 58 59 55 50 48 48 49 50 50 51 52 54 53 53 52 53 55 56 56 57 57 59 61 63 63 63 63 64
103 102 100 97 95 92 90 89 87 84 82 81 79 77 76 75 75 74 72 71 69 68 67 65 64 63 62 61 61 59 58 57 57 56 55 55 54 53 53 52 52 52 54 55 56 57 57 58 58 56 54 53 51 48 47 49 52 56 57 52 49 48 48 47 47 47 49 51 51 50 49 50 51 52 52 53 54 55 56 58 59 60 60 61 61
103 101 99 97 95 92 90 88 87 85 83 81 79 77 75 74 74 73 71 70 69 67 66 65 63 62 62 61 60 59 58 57 57 56 55 54 53 52 52 52 51 51 52 54 55 56 56 56 56 55 53 52 51 47 46 47 50 54 54 50 48 49 48 45 44 46 48 49 48 47 47 47 47 48 49 50 51 52 53 55 56 57 57 58 59
103 101 99 97 94 92 90 88 86 85 83 81 79 77 75 74 73 72 70 69 68 66 65 64 62 62 61 60 60 58 58 57 57 56 55 54 52 51 51 50 50 50 50 52 53 54 55 55 55 54 51 51 49 46 44 45 47 51 53 50 47 48 47 44 43 44 46 46 44 44 45 46 45 46 46 47 48 49 50 52 53 54 55 56 57
104 102 99 96 94 92 89 88 86 84 82 80 78 76 74 73 72 70 69 68 67 66 65 63 62 61 60 60 59 58 57 57 57 56 55 54 52 50 49 49 49 48 48 49 50 52 54 54 54 53 51 49 48 45 42 42 44 48 51 50 47 46 45 43 42 43 45 44 42 42 43 44 43 44 44 45 45 46 48 49 50 51 52 53 55
105 102 99 95 93 91 89 87 85 84 82 80 77 75 73 72 71 69 68 66 65 65 64 62 61 60 60 59 58 58 57 57 56 56 55 55 53 50 47 46 46 47 47 47 47 49 52 52 54 54 51 48 47 44 41 39 40 43 48 49 48 46 44 42 42 43 44 43 41 40 41 41 42 42 43 43 43 44 45 46 47 48 50 51 52
103 100 97 94 92 90 88 86 85 83 81 79 76 74 73 71 70 68 67 66 65 64 63 62 61 60 59 58 58 57 57 56 56 55 54 54 54 52 48 44 42 43 45 46 46 47 49 50 51 53 53 50 47 44 41 38 37 39 42 45 46 46 44 42 41 42 42 41 40 39 39 40 40 41 41 41 42 42 43 44 45 46 47 49 50
Wind_Direction
274 274 274 274 274 274 274 274 274 274 274 274 274 274 274 274 274 275 275 274 274 274 274 274 274 274 274 274 274 274 274 273 273 273 273 273 272 272 272 272 272 272 272 272 272 272 271 271 271 271 271 271 271 270 270 270 269 269 268 268 267 267 267 266 266 265 265 264 264 264 264 263 263 263 263 262 262 261 261 260 260 259 259 259 259
275 275 275 275 275 274 274 274 275 275 275 275 275 275 275 275 275 275 275 275 274 274 274 274 274 274 274 274 274 274 274 274 274 274 273 273 273 273 273 272 272 272 272 272 271 271 271 271 271 271 270 270 270 270 269 269 269 268 268 267 267 266 266 266 265 265 264 264 264 264 263 263 263 263 262 262 261 261 260 260 260 259 259 259 259
276 276 276 276 276 276 276 276 276 276 276 276 276 276 275 275 275 275 275 275 275 275 275 275 275 275 275 275 275 275 274 274 274 274 274 273 273 273 272 272 272 271 271 271 271 271 270 270 270 270 269 269 269 269 268 268 268 268 267 267 267 266 266 265 265 265 264 264 263 263 263 263 262 262 262 261 261 261 260 259 259 259 259 258 258
277 277 277 277 277 277 277 277 277 276 276 276 276 276 276 276 276 276 276 276 276 276 276 275 275 275 275 275 275 274 274 274 274 273 273 273 273 272 272 272 271 271 271 270 270 270 270 269 269 269 269 268 268 268 268 268 267 267 267 267 266 266 266 265 265 265 264 264 263 263 262 262 262 262 262 261 261 260 260 260 259 258 258 257 257
278 278 277 277 277 277 277 277 276 276 276 276 276 276 276 276 276 276 276 276 275 275 275 275 275 275 275 274 274 274 274 273 273 273 273 272 272 272 272 271 271 271 270 270 270 270 269 269 269 268 268 268 268 268 268 268 267 267 267 266 266 266 265 265 265 265 264 263 263 262 262 262 261 261 261 261 260 260 259 259 258 257 256 256 255
278 277 277 277 277 277 277 276 276 276 276 276 276 276 276 276 276 276 276 275 275 275 275 275 274 274 274 274 274 273 273 273 273 272 272 272 272 272 271 271 271 271 270 270 270 270 269 269 269 268 268 268 268 268 268 268 267 267 267 266 266 266 265 264 264 264 264 263 263 262 261 261 261 260 260 260 260 260 259 258 258 257 255 254 253
278 278 278 278 278 278 277 277 277 277 277 277 277 277 277 277 276 276 276 276 275 275 275 275 274 274 274 274 273 273 273 273 272 272 272 272 272 271 271 271 271 271 271 270 270 270 269 269 269 268 268 268 268 268 268 267 267 267 267 266 266 266 265 265 264 264 264 263 263 262 261 260 260 260 259 259 259 259 259 257 257 256 255 253 251
279 279 279 279 278 278 278 278 278 278 278 278 278 278 277 277 277 276 276 276 275 275 275 274 274 274 274 273 273 273 273 273 272 272 272 272 272 271 271 271 271 270 270 270 270 270 269 269 269 269 268 268 268 268 267 267 267 267 267 266 266 266 265 265 264 264 264 263 263 263 262 261 260 259 259 258 257 257 258 258 256 255 254 253 251
278 278 278 278 278 278 278 278 278 277 277 277 277 277 276 276 276 275 275 275 275 274 274 274 274 273 273 273 273 273 272 272 272 272 271 271 271 271 271 271 270 270 270 270 270 269 269 269 269 269 268 268 268 268 267 267 267 267 267 266 266 266 265 265 264 264 263 263 263 263 262 261 260 259 258 258 257 255 256 257 257 255 253 252 251
277 277 277 277 277 277 277 276 276 276 276 276 276 275 275 275 275 274 274 274 274 274 273 273 273 273 273 272 272 272 272 272 271 271 271 271 271 271 271 270 270 270 270 270 269 269 269 269 269 268 268 268 268 267 267 267 267 267 266 266 266 266 265 265 264 264 264 263 263 263 262 261 260 259 258 257 256 255 254 254 255 255 253 252 250
277 277 276 276 276 276 276 276 276 275 275 275 275 275 275 274 274 274 274 274 273 273 273 273 273 273 272 272 272 272 272 271 271 271 271 271 271 270 270 270 270 270 270 270 269 269 269 269 268 268 268 268 268 267 267 267 267 266 266 266 266 265 265 265 264 264 263 263 262 262 261 261 259 258 257 256 255 254 253 252 253 254 253 252 251
277 277 276 276 276 276 276 276 276 275 275 275 275 275 275 274 274 274 274 274 274 273 273 273 273 273 273 272 272 272 272 272 271 271 271 271 270 270 270 270 270 270 269 269 269 269 269 268 268 268 268 268 267 267 267 267 267 266 266 266 265 265 265 264 264 263 263 262 261 261 260 260 259 258 257 256 255 254 252 251 251 251 252 251 251
278 278 277 277 277 277 277 276 276 276 276 275 275 275 275 275 275 274 274 274 274 274 274 273 273 273 273 273 273 272 272 272 272 272 271 271 271 271 270 270 270 270 270 269 269 269 269 268 268 268 268 267 267 267 267 266 266 266 266 265 265 265 264 264 263 262 262 261 260 260 259 259 258 258 257 256 255 254 252 251 250 250 250 250 250
279 279 279 278 278 278 277 277 277 276 276 276 276 275 275 275 275 275 275 274 274 274 274 274 274 274 273 273 273 273 273 272 272 272 272 271 271 271 271 270 270 270 270 270 269 269 269 269 268 268 268 267 267 267 267 266 266 266 266 265 265 264 264 263 263 262 261 261 260 259 259 258 258 257 257 256 255 254 253 251 250 249 249 248 249
280 280 279 279 278 278 278 277 277 277 276 276 276 276 275 275 275 275 274 274 274 274 274 274 274 274 273 273 273 273 273 272 272 272 272 271 271 271 271 271 270 270 270 270 270 269 269 269 269 268 268 268 268 267 267 267 267 266 266 265 265 264 264 263 263 262 262 261 260 259 258 258 257 257 256 255 254 253 252 251 250 249 248 247 248
281 281 280 280 279 279 278 278 278 277 277 277 276 276 276 275 275 275 274 274 274 274 274 274 273 273 273 273 273 273 272 272 272 272 272 272 271 271 271 271 271 270 270 270 270 270 270 269 269 269 269 268 268 268 268 267 267 267 266 266 265 265 264 264 263 263 262 261 261 260 259 258 257 257 256 255 254 253 252 251 250 248 247 246 246
283 282 282 281 281 280 280 279 279 278 278 277 277 277 276 276 276 275 275 275 274 274 274 274 273 273 273 273 273 272 272 272 272 272 271 271 271 271 271 271 270 270 270 270 270 270 270 269 269 269 269 269 268 268 268 267 267 267 266 266 266 265 265 264 264 263 262 262 261 260 260 259 258 257 256 255 254 253 252 251 250 249 247 245 245
285 284 284 283 283 282 282 281 281 281 280 279 279 278 278 277 277 277 276 276 275 275 274 274 274 274 273 273 273 273 272 272 272 272 272 271 271 271 271 270 270 270 270 269 269 269 269 269 269 269 269 268 268 268 268 267 267 267 266 266 266 265 265 264 264 263 263 262 261 261 260 259 258 258 257 256 255 254 253 252 250 249 248 246 244
288 287 286 286 285 284 283 283 282 282 282 281 281 280 280 280 279 279 279 278 277 277 276 276 275 275 274 274 274 273 273 273 273 272 272 272 272 271 271 271 270 270 270 270 269 269 269 269 268 268 268 268 268 268 267 267 267 267 266 266 266 265 265 264 264 263 263 262 262 261 260 260 259 258 257 256 255 255 253 252 251 250 249 247 245
290 289 288 287 286 285 284 284 283 282 281 281 281 280 280 280 280 279 279 279 279 278 278 278 277 277 276 276 275 275 274 274 273 273 272 272 272 272 271 271 271 271 270 270 270 269 269 269 268 268 268 268 267 267 267 267 267 266 266 266 265 265 265 264 264 263 263 262 262 262 261 260 259 259 258 257 256 255 254 253 252 251 250 248 247
292 291 290 289 289 288 287 287 286 285 284 283 282 281 281 280 280 279 279 279 278 278 278 278 278 277 277 277 277 276 276 276 275 274 274 273 273 272 272 271 271 270 270 270 270 270 269 269 269 268 268 268 268 267 267 267 267 266 266 266 265 265 265 264 264 263 263 262 262 261 261 261 260 259 258 258 257 256 255 254 253 252 251 249 248
297 296 295 294 293 292 291 291 290 289 288 287 286 285 284 283 282 281 280 280 279 279 278 278 277 277 277 276 276 276 276 276 275 275 275 274 274 274 273 272 272 271 270 270 269 269 269 269 269 268 268 268 268 268 267 267 267 266 266 266 265 265 265 264 264 263 263 263 262 262 261 261 260 259 259 258 257 256 255 255 254 253 251 250 249
301 300 300 299 298 297 296 295 294 293 292 291 290 289 288 287 285 284 283 282 281 280 279 278 278 277 276 276 275 275 275 275 275 275 274 274 274 274 273 273 273 272 272 271 270 270 269 269 268 268 268 267 267 267 267 267 266 266 266 266 265 265 265 264 264 263 263 263 262 262 261 261 260 260 259 258 258 257 256 255 254 253 252 251 250
303 303 302 302 301 300 300 299 298 297 296 295 294 293 292 291 290 289 288 287 285 284 283 281 280 279 278 277 276 275 275 274 274 274 274 273 273 273 273 273 272 272 272 272 271 271 270 270 269 268 268 267 267 266 266 266 266 266 265 265 265 265 264 264 264 263 263 263 262 262 261 261 260 260 259 259 258 257 256 255 254 253 253 251 250
304 304 303 303 302 302 301 301 300 300 299 298 297 296 295 294 293 292 291 290 289 288 287 285 284 282 281 279 278 277 276 275 274 273 273 273 273 272 272 272 272 272 271 271 271 271 271 270 270 269 269 268 268 267 267 266 266 265 265 265 265 264 264 264 263 263 263 263 262 262 262 261 261 260 260 259 258 258 257 256 255 254 253 252 251
306 305 305 304 304 304 303 302 302 301 300 299 298 297 296 295 294 293 292 291 291 289 288 287 286 285 284 282 281 279 278 277 276 275 274 273 272 272 272 272 272 271 271 271 271 271 270 270 270 270 269 269 269 268 268 267 267 266 266 265 265 265 264 264 264 263 263 262 262 262 261 261 260 260 259 259 258 258 257 256 255 254 253 252 251
309 308 308 307 306 305 305 304 303 302 301 299 298 297 296 295 295 294 293 292 291 290 289 288 287 286 284 283 282 281 280 279 278 277 275 274 274 273 272 272 271 271 271 271 271 271 271 270 270 270 270 269 269 268 268 268 267 267 267 266 266 265 265 265 265 264 264 264 263 262 262 261 261 260 259 259 258 258 257 256 255 255 254 253 252
312 311 310 309 308 307 306 305 304 303 302 300 299 298 298 297 296 296 295 294 293 292 291 289 288 287 286 284 284 283 281 280 279 278 277 276 275 274 273 273 272 271 271 270 270 270 270 270 270 270 270 269 269 268 268 268 268 267 267 267 267 266 266 266 266 265 265 265 264 263 263 262 261 261 260 259 259 258 257 257 256 255 255 254 253
314 313 312 311 310 310 308 307 306 305 304 303 302 301 300 299 299 299 298 297 296 295 293 292 291 289 288 287 286 285 283 282 281 280 279 278 277 276 275 275 274 273 273 272 271 271 270 270 270 270 269 269 269 269 268 268 268 268 267 267 267 267 266 266 266 265 265 264 264 263 263 262 262 261 260 260 259 258 258 257 256 256 255 254 253
318 317 315 314 313 312 312 310 309 308 307 306 304 304 303 302 302 302 301 300 299 297 296 294 293 292 290 289 288 287 286 285 283 282 281 280 279 278 278 277 276 276 275 274 274 273 272 271 271 270 270 270 269 269 269 269 269 268 268 267 267 267 266 266 265 264 264 263 263 262 262 262 261 261 260 259 259 258 257 257 256 255 255 254 253
320 319 318 317 316 315 314 313 312 311 310 309 307 306 306 305 305 304 303 302 300 298 297 296 295 293 292 291 290 289 287 286 285 284 283 282 281 280 280 279 278 277 277 276 275 275 274 273 273 272 271 271 270 270 269 269 269 268 268 267 267 267 266 266 265 264 263 263 262 262 261 261 261 260 260 259 259 258 257 256 256 255 254 254 253
322 320 319 318 317 317 316 315 314 313 312 311 310 309 307 307 306 306 305 303 301 300 299 298 296 295 294 293 292 290 289 288 286 285 285 284 283 282 281 281 280 279 278 278 277 276 275 275 274 273 273 272 271 271 270 270 269 269 268 267 266 266 265 265 264 263 262 262 261 261 260 260 260 260 259 259 259 258 257 257 256 255 255 254 254
323 322 321 320 319 318 318 317 317 316 315 313 312 310 309 308 308 307 306 304 303 301 300 299 298 297 296 295 294 292 290 289 288 287 286 285 284 284 283 282 282 281 280 279 278 277 276 276 275 274 273 273 272 271 271 271 270 269 268 267 266 264 263 263 263 262 262 261 261 260 260 259 259 259 259 259 258 258 258 257 257 256 255 255 254
325 324 323 322 322 321 320 320 319 318 317 315 313 312 310 309 309 309 307 305 304 303 301 301 300 299 298 297 295 294 292 291 290 288 287 287 286 285 284 284 283 282 281 280 280 279 278 277 276 275 274 273 273 272 272 271 270 269 268 267 266 264 263 262 261 261 261 261 260 260 260 260 259 259 258 258 258 258 258 258 258 257 256 255 254
327 326 326 325 324 323 322 321 321 320 318 317 315 313 312 311 310 310 309 306 305 304 303 303 302 301 300 298 297 295 294 293 292 291 290 289 288 287 286 285 284 283 283 282 281 280 279 278 277 276 275 275 274 273 272 272 270 269 268 267 267 265 264 263 262 261 261 261 261 260 260 260 260 259 259 258 258 258 258 258 258 257 257 256 255
330 329 328 327 326 325 323 322 322 320 319 317 315 314 313 312 312 311 310 308 306 305 304 304 303 302 301 299 298 296 295 294 294 292 292 291 290 289 288 287 286 285 284 283 282 281 281 280 279 278 277 276 275 275 274 273 272 271 270 269 268 267 266 264 263 262 262 261 261 261 260 259 259 259 259 259 259 259 258 258 257 257 256 256 255
333 331 329 328 327 326 324 323 322 321 320 318 317 315 314 314 314 313 311 309 307 306 306 306 305 303 302 300 298 297 297 296 295 294 293 292 291 291 290 289 288 287 286 285 284 283 283 282 281 280 279 278 278 277 276 275 273 272 270 269 268 267 267 266 265 264 263 262 262 261 260 260 259 259 259 259 259 259 258 257 257 256 256 255 255
334 332 330 329 328 327 325 324 323 322 321 320 318 317 316 315 315 314 312 310 308 308 308 308 306 304 302 301 300 299 298 297 296 295 295 294 293 292 292 291 290 289 288 287 287 286 285 284 282 281 280 280 279 279 277 276 275 273 271 269 268 268 267 267 266 265 264 263 262 261 260 260 260 259 259 259 259 259 258 257 256 256 256 255 254
334 333 331 330 328 327 326 324 324 323 322 321 320 318 317 317 317 315 313 311 310 310 311 310 308 305 303 302 301 300 299 298 297 297 296 295 295 294 293 292 291 291 290 289 288 287 286 285 283 282 281 281 280 279 278 277 276 274 272 270 269 269 268 268 267 266 265 263 262 261 261 260 259 259 259 259 259 259 258 257 256 256 255 255 254
334 333 332 331 329 328 326 325 325 324 323 322 321 319 319 319 317 316 314 313 312 312 312 311 309 306 304 303 303 301 300 299 299 298 297 296 296 295 294 293 293 292 291 290 289 288 287 285 284 283 282 282 281 280 279 278 277 275 274 272 270 269 269 269 269 267 266 264 263 262 261 260 259 258 259 259 259 258 257 257 256 256 255 254 254
335 334 333 332 330 328 327 326 325 325 324 323 322 321 320 319 318 316 315 314 313 314 314 312 309 307 306 305 304 302 301 301 300 299 298 297 297 296 295 294 294 293 292 290 289 288 287 285 285 284 284 284 283 281 280 279 278 276 275 273 272 271 271 271 270 268 266 265 264 263 262 261 260 259 259 258 258 258 257 256 255 254 254 253 253
336 334 333 332 331 329 328 327 326 326 325 324 323 322 321 320 319 317 316 315 315 316 315 312 310 309 308 307 305 304 303 302 301 300 299 298 297 297 296 295 294 293 292 291 290 289 288 286 286 286 286 286 284 283 282 281 279 277 276 274 274 273 273 272 271 269 267 265 265 265 263 262 261 260 259 258 257 257 257 256 255 254 253 253 253
336 335 333 332 331 330 329 328 327 326 326 325 324 323 322 321 319 318 317 316 316 316 315 313 311 311 310 308 306 305 305 304 303 301 300 299 299 298 297 296 295 293 292 291 290 289 288 288 287 287 287 287 285 284 283 282 280 279 277 276 276 276 275 272 270 269 268 268 267 266 264 263 261 260 259 258 257 256 256 255 254 253 253 253 253
336 335 334 333 332 331 330 329 328 327 327 325 324 324 323 322 320 318 317 317 317 317 315 314 313 312 311 309 308 307 306 305 304 303 302 301 300 300 298 297 296 294 293 291 291 290 289 289 289 288 288 287 285 284 283 282 280 279 278 278 278 278 275 272 270 270 270 269 267 265 264 264 262 261 259 258 257 256 255 255 254 253 253 252 252
337 336 334 333 332 331 330 329 328 328 327 326 325 325 324 322 321 319 319 319 318 317 316 315 314 313 312 311 309 308 308 307 305 304 303 303 302 301 300 298 297 295 293 292 291 291 290 290 289 289 289 288 286 284 283 281 280 279 279 280 280 278 275 272 271 270 270 268 266 265 264 264 263 261 260 259 257 255 255 254 254 253 253 252 251
337 335 334 333 332 331 331 330 329 328 327 326 326 325 324 323 321 320 320 320 319 318 317 316 315 314 313 311 310 310 309 308 307 306 305 304 303 302 300 299 298 296 294 293 292 291 290 290 289 289 289 288 286 285 283 281 280 279 280 281 281 278 275 273 272 271 269 267 267 266 265 263 262 261 260 259 257 256 254 254 253 253 252 251 250
337 336 334 333 333 332 331 330 329 328 327 327 326 326 325 323 322 321 321 320 319 319 318 317 316 315 314 313 312 311 310 309 308 307 306 305 304 303 301 300 299 297 295 294 293 292 291 290 290 289 289 288 287 286 284 282 281 280 281 281 280 278 276 274 273 271 268 267 267 267 265 264 262 261 260 259 257 256 255 254 253 252 251 250 249
337 336 335 334 333 332 331 330 329 328 327 327 326 326 326 324 323 323 322 321 320 320 319 318 317 316 315 314 313 313 312 311 309 308 307 306 305 304 303 302 300 299 297 295 294 293 292 291 290 290 289 288 287 286 285 283 282 281 281 281 280 278 277 275 273 271 269 268 267 267 266 265 263 262 260 259 257 256 254 253 252 251 250 249 248
337 336 335 334 333 332 332 331 330 328 328 327 327 327 326 325 324 324 323 322 321 321 319 319 318 317 316 316 315 314 313 312 311 310 309 308 307 306 305 304 302 300 298 296 295 294 293 292 291 290 289 289 288 288 286 284 282 282 282 282 281 279 278 277 274 272 270 269 267 266 266 265 264 263 261 259 257 256 254 253 252 251 250 249 248
337 336 335 334 333 333 332 331 330 329 328 328 328 328 327 326 325 325 324 323 322 321 320 320 320 319 318 317 316 315 314 313 312 311 310 309 308 307 306 305 304 302 299 297 295 293 293 292 292 291 291 289 289 288 287 284 282 280 281 282 282 280 279 277 275 273 272 270 268 266 266 265 264 263 261 260 258 256 254 253 251 250 249 248 247
337 336 335 334 334 333 332 331 330 329 329 329 329 329 328 327 326 326 325 324 323 322 321 321 321 320 318 317 316 316 315 314 313 312 312 311 309 309 308 306 305 303 301 299 297 294 293 292 292 292 292 292 290 289 287 285 282 279 279 280 282 281 280 278 276 274 273 272 271 268 267 265 264 262 261 259 258 256 254 252 251 250 249 247 247